owner,sensor,date,latitude,longitude,vertical_datum,wind_speed,wind_to_direction,wind_speed_of_gust,qcFlag 
FIT,ioos:station:wmo:SIPF1:1,2017-12-01T00:00:00Z,27.8620,-80.4450,1.0,6.7,26.0,99.0,'11111222,11111222,11144222' 
FIT,ioos:station:wmo:SIPF1:1,2017-12-01T00:15:00Z,27.8620,-80.4450,1.0,6.1,27.0,99.0,'11111222,11111222,11144222' 
FIT,ioos:station:wmo:SIPF1:1,2017-12-01T00:30:00Z,27.8620,-80.4450,1.0,5.8,26.0,99.0,'11111222,11111222,11144222' 
FIT,ioos:station:wmo:SIPF1:1,2017-12-01T00:45:00Z,27.8620,-80.4450,1.0,5.7,18.0,99.0,'11111222,11111222,11144222' 
FIT,ioos:station:wmo:SIPF1:1,2017-12-01T01:00:00Z,27.8620,-80.4450,1.0,5.6,16.0,99.0,'11111222,11111222,11144222' 
FIT,ioos:station:wmo:SIPF1:1,2017-12-01T01:15:00Z,27.8620,-80.4450,1.0,5.7,13.0,99.0,'11111222,11111222,11144222' 
FIT,ioos:station:wmo:SIPF1:1,2017-12-01T01:30:00Z,27.8620,-80.4450,1.0,6.0,10.0,99.0,'11111222,11111222,11144222' 
FIT,ioos:station:wmo:SIPF1:1,2017-12-01T01:45:00Z,27.8620,-80.4450,1.0,6.1,11.0,99.0,'11111222,11111222,11144222' 
FIT,ioos:station:wmo:SIPF1:1,2017-12-01T02:00:00Z,27.8620,-80.4450,1.0,6.1,12.0,99.0,'11111222,11111222,11144222' 
FIT,ioos:station:wmo:SIPF1:1,2017-12-01T02:15:00Z,27.8620,-80.4450,1.0,6.3,2.0,99.0,'11111222,11111222,11144222' 
FIT,ioos:station:wmo:SIPF1:1,2017-12-01T02:30:00Z,27.8620,-80.4450,1.0,6.7,3.0,99.0,'11111222,11111222,11144222' 
FIT,ioos:station:wmo:SIPF1:1,2017-12-01T02:45:00Z,27.8620,-80.4450,1.0,6.2,3.0,99.0,'11111222,11111222,11144222' 
FIT,ioos:station:wmo:SIPF1:1,2017-12-01T03:00:00Z,27.8620,-80.4450,1.0,5.6,4.0,99.0,'11111222,11111222,11144222' 
FIT,ioos:station:wmo:SIPF1:1,2017-12-01T03:15:00Z,27.8620,-80.4450,1.0,4.6,20.0,99.0,'11111222,11111222,11144222' 
FIT,ioos:station:wmo:SIPF1:1,2017-12-01T03:30:00Z,27.8620,-80.4450,1.0,4.4,37.0,99.0,'11111222,11111222,11144222' 
FIT,ioos:station:wmo:SIPF1:1,2017-12-01T03:45:00Z,27.8620,-80.4450,1.0,4.0,33.0,99.0,'11111222,11111222,11144222' 
FIT,ioos:station:wmo:SIPF1:1,2017-12-01T04:00:00Z,27.8620,-80.4450,1.0,4.0,36.0,99.0,'11111222,11111222,11144222' 
FIT,ioos:station:wmo:SIPF1:1,2017-12-01T04:15:00Z,27.8620,-80.4450,1.0,3.6,30.0,99.0,'11111222,11111222,11144222' 
FIT,ioos:station:wmo:SIPF1:1,2017-12-01T04:30:00Z,27.8620,-80.4450,1.0,3.7,32.0,99.0,'11111222,11111222,11144222' 
FIT,ioos:station:wmo:SIPF1:1,2017-12-01T04:45:00Z,27.8620,-80.4450,1.0,3.2,31.0,99.0,'11111222,11111222,11144222' 
FIT,ioos:station:wmo:SIPF1:1,2017-12-01T05:00:00Z,27.8620,-80.4450,1.0,3.0,24.0,99.0,'11111222,11111222,11144222' 
FIT,ioos:station:wmo:SIPF1:1,2017-12-01T05:15:00Z,27.8620,-80.4450,1.0,3.6,10.0,99.0,'11111222,11111222,11144222' 
FIT,ioos:station:wmo:SIPF1:1,2017-12-01T05:30:00Z,27.8620,-80.4450,1.0,4.6,353.0,99.0,'11111222,11111222,11144222' 
FIT,ioos:station:wmo:SIPF1:1,2017-12-01T05:45:00Z,27.8620,-80.4450,1.0,4.7,350.0,99.0,'11111222,11111222,11144222' 
FIT,ioos:station:wmo:SIPF1:1,2017-12-01T06:00:00Z,27.8620,-80.4450,1.0,6.5,346.0,99.0,'11111222,11111222,11144222' 
FIT,ioos:station:wmo:SIPF1:1,2017-12-01T06:15:00Z,27.8620,-80.4450,1.0,7.4,344.0,99.0,'11111222,11111222,11144222' 
FIT,ioos:station:wmo:SIPF1:1,2017-12-01T06:30:00Z,27.8620,-80.4450,1.0,6.8,344.0,99.0,'11111222,11111222,11144222' 
FIT,ioos:station:wmo:SIPF1:1,2017-12-01T06:45:00Z,27.8620,-80.4450,1.0,4.3,325.0,99.0,'11111222,11111222,11144222' 
FIT,ioos:station:wmo:SIPF1:1,2017-12-01T07:00:00Z,27.8620,-80.4450,1.0,4.0,322.0,99.0,'11111222,11111222,11144222' 
FIT,ioos:station:wmo:SIPF1:1,2017-12-01T07:15:00Z,27.8620,-80.4450,1.0,4.0,325.0,99.0,'11111222,11111222,11144222' 
FIT,ioos:station:wmo:SIPF1:1,2017-12-01T07:30:00Z,27.8620,-80.4450,1.0,3.9,324.0,99.0,'11111222,11111222,11144222' 
FIT,ioos:station:wmo:SIPF1:1,2017-12-01T07:45:00Z,27.8620,-80.4450,1.0,4.7,327.0,99.0,'11111222,11111222,11144222' 
FIT,ioos:station:wmo:SIPF1:1,2017-12-01T08:00:00Z,27.8620,-80.4450,1.0,4.9,325.0,99.0,'11111222,11111222,11144222' 
FIT,ioos:station:wmo:SIPF1:1,2017-12-01T08:15:00Z,27.8620,-80.4450,1.0,3.4,319.0,99.0,'11111222,11111222,11144222' 
FIT,ioos:station:wmo:SIPF1:1,2017-12-01T08:30:00Z,27.8620,-80.4450,1.0,3.8,324.0,99.0,'11111222,11111222,11144222' 
FIT,ioos:station:wmo:SIPF1:1,2017-12-01T08:45:00Z,27.8620,-80.4450,1.0,5.0,330.0,99.0,'11111222,11111222,11144222' 
FIT,ioos:station:wmo:SIPF1:1,2017-12-01T09:00:00Z,27.8620,-80.4450,1.0,4.9,328.0,99.0,'11111222,11111222,11144222' 
FIT,ioos:station:wmo:SIPF1:1,2017-12-01T09:15:00Z,27.8620,-80.4450,1.0,4.7,334.0,99.0,'11111222,11111222,11144222' 
FIT,ioos:station:wmo:SIPF1:1,2017-12-01T09:30:00Z,27.8620,-80.4450,1.0,4.8,332.0,99.0,'11111222,11111222,11144222' 
FIT,ioos:station:wmo:SIPF1:1,2017-12-01T09:45:00Z,27.8620,-80.4450,1.0,4.5,330.0,99.0,'11111222,11111222,11144222' 
FIT,ioos:station:wmo:SIPF1:1,2017-12-01T10:00:00Z,27.8620,-80.4450,1.0,4.2,327.0,99.0,'11111222,11111222,11144222' 
FIT,ioos:station:wmo:SIPF1:1,2017-12-01T10:15:00Z,27.8620,-80.4450,1.0,4.3,329.0,99.0,'11111222,11111222,11144222' 
FIT,ioos:station:wmo:SIPF1:1,2017-12-01T10:30:00Z,27.8620,-80.4450,1.0,4.6,326.0,99.0,'11111222,11111222,11144222' 
FIT,ioos:station:wmo:SIPF1:1,2017-12-01T10:45:00Z,27.8620,-80.4450,1.0,4.2,322.0,99.0,'11111222,11111222,11144222' 
FIT,ioos:station:wmo:SIPF1:1,2017-12-01T11:00:00Z,27.8620,-80.4450,1.0,3.3,317.0,99.0,'11111222,11111222,11144222' 
FIT,ioos:station:wmo:SIPF1:1,2017-12-01T11:15:00Z,27.8620,-80.4450,1.0,3.0,318.0,99.0,'11111222,11111222,11144222' 
FIT,ioos:station:wmo:SIPF1:1,2017-12-01T11:30:00Z,27.8620,-80.4450,1.0,3.3,327.0,99.0,'11111222,11111222,11144222' 
FIT,ioos:station:wmo:SIPF1:1,2017-12-01T11:45:00Z,27.8620,-80.4450,1.0,6.3,3.0,99.0,'11111222,11111222,11144222' 
FIT,ioos:station:wmo:SIPF1:1,2017-12-01T12:00:00Z,27.8620,-80.4450,1.0,6.7,5.0,99.0,'11111222,11111222,11144222' 
FIT,ioos:station:wmo:SIPF1:1,2017-12-01T12:15:00Z,27.8620,-80.4450,1.0,6.2,6.0,99.0,'11111222,11111222,11144222' 
FIT,ioos:station:wmo:SIPF1:1,2017-12-01T12:30:00Z,27.8620,-80.4450,1.0,5.8,1.0,99.0,'11111222,11111222,11144222' 
FIT,ioos:station:wmo:SIPF1:1,2017-12-01T12:45:00Z,27.8620,-80.4450,1.0,5.3,2.0,99.0,'11111222,11111222,11144222' 
FIT,ioos:station:wmo:SIPF1:1,2017-12-01T13:00:00Z,27.8620,-80.4450,1.0,5.5,360.0,99.0,'11111222,11144222,11144222' 
FIT,ioos:station:wmo:SIPF1:1,2017-12-01T13:15:00Z,27.8620,-80.4450,1.0,5.6,355.0,99.0,'11111222,11111222,11144222' 
FIT,ioos:station:wmo:SIPF1:1,2017-12-01T13:30:00Z,27.8620,-80.4450,1.0,5.5,357.0,99.0,'11111222,11111222,11144222' 
FIT,ioos:station:wmo:SIPF1:1,2017-12-01T13:45:00Z,27.8620,-80.4450,1.0,4.9,357.0,99.0,'11111222,11111222,11144222' 
FIT,ioos:station:wmo:SIPF1:1,2017-12-01T14:00:00Z,27.8620,-80.4450,1.0,4.7,0.0,99.0,'11111222,11111222,11144222' 
FIT,ioos:station:wmo:SIPF1:1,2017-12-01T14:15:00Z,27.8620,-80.4450,1.0,4.2,14.0,99.0,'11111222,11111222,11144222' 
FIT,ioos:station:wmo:SIPF1:1,2017-12-01T14:30:00Z,27.8620,-80.4450,1.0,4.7,28.0,99.0,'11111222,11111222,11144222' 
FIT,ioos:station:wmo:SIPF1:1,2017-12-01T14:45:00Z,27.8620,-80.4450,1.0,4.8,30.0,99.0,'11111222,11111222,11144222' 
FIT,ioos:station:wmo:SIPF1:1,2017-12-01T15:00:00Z,27.8620,-80.4450,1.0,5.0,32.0,99.0,'11111222,11111222,11144222' 
FIT,ioos:station:wmo:SIPF1:1,2017-12-01T15:15:00Z,27.8620,-80.4450,1.0,4.5,31.0,99.0,'11111222,11111222,11144222' 
FIT,ioos:station:wmo:SIPF1:1,2017-12-01T15:30:00Z,27.8620,-80.4450,1.0,4.5,33.0,99.0,'11111222,11111222,11144222' 
FIT,ioos:station:wmo:SIPF1:1,2017-12-01T15:45:00Z,27.8620,-80.4450,1.0,4.4,30.0,99.0,'11111222,11111222,11144222' 
FIT,ioos:station:wmo:SIPF1:1,2017-12-01T16:00:00Z,27.8620,-80.4450,1.0,4.4,30.0,99.0,'11111222,11111222,11144222' 
FIT,ioos:station:wmo:SIPF1:1,2017-12-01T16:15:00Z,27.8620,-80.4450,1.0,4.4,36.0,99.0,'11111222,11111222,11144222' 
FIT,ioos:station:wmo:SIPF1:1,2017-12-01T16:30:00Z,27.8620,-80.4450,1.0,4.3,32.0,99.0,'11111222,11111222,11144222' 
FIT,ioos:station:wmo:SIPF1:1,2017-12-01T16:45:00Z,27.8620,-80.4450,1.0,4.8,27.0,99.0,'11111222,11111222,11144222' 
FIT,ioos:station:wmo:SIPF1:1,2017-12-01T17:00:00Z,27.8620,-80.4450,1.0,4.6,29.0,99.0,'11111222,11111222,11144222' 
FIT,ioos:station:wmo:SIPF1:1,2017-12-01T17:15:00Z,27.8620,-80.4450,1.0,4.7,31.0,99.0,'11111222,11111222,11144222' 
FIT,ioos:station:wmo:SIPF1:1,2017-12-01T17:30:00Z,27.8620,-80.4450,1.0,4.7,31.0,99.0,'11111222,11111222,11144222' 
FIT,ioos:station:wmo:SIPF1:1,2017-12-01T17:45:00Z,27.8620,-80.4450,1.0,4.8,32.0,99.0,'11111222,11111222,11144222' 
FIT,ioos:station:wmo:SIPF1:1,2017-12-01T18:00:00Z,27.8620,-80.4450,1.0,4.6,27.0,99.0,'11111222,11111222,11144222' 
FIT,ioos:station:wmo:SIPF1:1,2017-12-01T18:15:00Z,27.8620,-80.4450,1.0,4.6,25.0,99.0,'11111222,11111222,11144222' 
FIT,ioos:station:wmo:SIPF1:1,2017-12-01T18:30:00Z,27.8620,-80.4450,1.0,4.2,33.0,99.0,'11111222,11111222,11144222' 
FIT,ioos:station:wmo:SIPF1:1,2017-12-01T18:45:00Z,27.8620,-80.4450,1.0,4.2,33.0,99.0,'11111222,11111222,11144222' 
FIT,ioos:station:wmo:SIPF1:1,2017-12-01T19:00:00Z,27.8620,-80.4450,1.0,4.3,32.0,99.0,'11111222,11111222,11144222' 
FIT,ioos:station:wmo:SIPF1:1,2017-12-01T19:15:00Z,27.8620,-80.4450,1.0,4.5,23.0,99.0,'11111222,11111222,11144222' 
FIT,ioos:station:wmo:SIPF1:1,2017-12-01T19:30:00Z,27.8620,-80.4450,1.0,4.7,17.0,99.0,'11111222,11111222,11144222' 
FIT,ioos:station:wmo:SIPF1:1,2017-12-01T19:45:00Z,27.8620,-80.4450,1.0,5.1,14.0,99.0,'11111222,11111222,11144222' 
FIT,ioos:station:wmo:SIPF1:1,2017-12-01T20:00:00Z,27.8620,-80.4450,1.0,5.5,11.0,99.0,'11111222,11111222,11144222' 
FIT,ioos:station:wmo:SIPF1:1,2017-12-01T20:15:00Z,27.8620,-80.4450,1.0,5.9,6.0,99.0,'11111222,11111222,11144222' 
FIT,ioos:station:wmo:SIPF1:1,2017-12-01T20:30:00Z,27.8620,-80.4450,1.0,5.5,10.0,99.0,'11111222,11111222,11144222' 
FIT,ioos:station:wmo:SIPF1:1,2017-12-01T20:45:00Z,27.8620,-80.4450,1.0,5.3,9.0,99.0,'11111222,11111222,11144222' 
FIT,ioos:station:wmo:SIPF1:1,2017-12-01T21:00:00Z,27.8620,-80.4450,1.0,5.3,11.0,99.0,'11111222,11111222,11144222' 
FIT,ioos:station:wmo:SIPF1:1,2017-12-01T21:15:00Z,27.8620,-80.4450,1.0,5.3,7.0,99.0,'11111222,11111222,11144222' 
FIT,ioos:station:wmo:SIPF1:1,2017-12-01T21:30:00Z,27.8620,-80.4450,1.0,4.8,12.0,99.0,'11111222,11111222,11144222' 
FIT,ioos:station:wmo:SIPF1:1,2017-12-01T21:45:00Z,27.8620,-80.4450,1.0,5.1,9.0,99.0,'11111222,11111222,11144222' 
FIT,ioos:station:wmo:SIPF1:1,2017-12-01T22:00:00Z,27.8620,-80.4450,1.0,4.7,15.0,99.0,'11111222,11111222,11144222' 
FIT,ioos:station:wmo:SIPF1:1,2017-12-01T22:15:00Z,27.8620,-80.4450,1.0,4.2,17.0,99.0,'11111222,11111222,11144222' 
FIT,ioos:station:wmo:SIPF1:1,2017-12-01T22:30:00Z,27.8620,-80.4450,1.0,3.8,31.0,99.0,'11111222,11111222,11144222' 
FIT,ioos:station:wmo:SIPF1:1,2017-12-01T22:45:00Z,27.8620,-80.4450,1.0,3.9,40.0,99.0,'11111222,11111222,11144222' 
FIT,ioos:station:wmo:SIPF1:1,2017-12-01T23:00:00Z,27.8620,-80.4450,1.0,3.5,40.0,99.0,'11111222,11111222,11144222' 
FIT,ioos:station:wmo:SIPF1:1,2017-12-01T23:15:00Z,27.8620,-80.4450,1.0,3.7,45.0,99.0,'11111222,11111222,11144222' 
FIT,ioos:station:wmo:SIPF1:1,2017-12-01T23:30:00Z,27.8620,-80.4450,1.0,4.4,55.0,99.0,'11111222,11111222,11144222' 
FIT,ioos:station:wmo:SIPF1:1,2017-12-01T23:45:00Z,27.8620,-80.4450,1.0,4.2,53.0,99.0,'11111222,11111222,11144222' 
FIT,ioos:station:wmo:SIPF1:1,2017-12-02T00:00:00Z,27.8620,-80.4450,1.0,4.1,53.0,99.0,'11111222,11111222,11144222' 
FIT,ioos:station:wmo:SIPF1:1,2017-12-02T00:15:00Z,27.8620,-80.4450,1.0,4.3,52.0,99.0,'11111222,11111222,11144222' 
FIT,ioos:station:wmo:SIPF1:1,2017-12-02T00:30:00Z,27.8620,-80.4450,1.0,4.6,52.0,99.0,'11111222,11111222,11144222' 
FIT,ioos:station:wmo:SIPF1:1,2017-12-02T00:45:00Z,27.8620,-80.4450,1.0,4.4,53.0,99.0,'11111222,11111222,11144222' 
FIT,ioos:station:wmo:SIPF1:1,2017-12-02T01:00:00Z,27.8620,-80.4450,1.0,4.2,52.0,99.0,'11111222,11111222,11144222' 
FIT,ioos:station:wmo:SIPF1:1,2017-12-02T01:15:00Z,27.8620,-80.4450,1.0,4.3,56.0,99.0,'11111222,11111222,11144222' 
FIT,ioos:station:wmo:SIPF1:1,2017-12-02T01:30:00Z,27.8620,-80.4450,1.0,3.6,56.0,99.0,'11111222,11111222,11144222' 
FIT,ioos:station:wmo:SIPF1:1,2017-12-02T01:45:00Z,27.8620,-80.4450,1.0,4.0,57.0,99.0,'11111222,11111222,11144222' 
FIT,ioos:station:wmo:SIPF1:1,2017-12-02T02:00:00Z,27.8620,-80.4450,1.0,4.2,56.0,99.0,'11111222,11111222,11144222' 
FIT,ioos:station:wmo:SIPF1:1,2017-12-02T02:15:00Z,27.8620,-80.4450,1.0,4.3,60.0,99.0,'11111222,11111222,11144222' 
FIT,ioos:station:wmo:SIPF1:1,2017-12-02T02:30:00Z,27.8620,-80.4450,1.0,3.8,63.0,99.0,'11111222,11111222,11144222' 
FIT,ioos:station:wmo:SIPF1:1,2017-12-02T02:45:00Z,27.8620,-80.4450,1.0,3.6,64.0,99.0,'11111222,11111222,11144222' 
FIT,ioos:station:wmo:SIPF1:1,2017-12-02T03:00:00Z,27.8620,-80.4450,1.0,3.7,61.0,99.0,'11111222,11111222,11144222' 
FIT,ioos:station:wmo:SIPF1:1,2017-12-02T03:15:00Z,27.8620,-80.4450,1.0,3.8,63.0,99.0,'11111222,11111222,11144222' 
FIT,ioos:station:wmo:SIPF1:1,2017-12-02T03:30:00Z,27.8620,-80.4450,1.0,3.8,64.0,99.0,'11111222,11111222,11144222' 
FIT,ioos:station:wmo:SIPF1:1,2017-12-02T03:45:00Z,27.8620,-80.4450,1.0,3.8,67.0,99.0,'11111222,11111222,11144222' 
FIT,ioos:station:wmo:SIPF1:1,2017-12-02T04:00:00Z,27.8620,-80.4450,1.0,3.3,67.0,99.0,'11111222,11111222,11144222' 
FIT,ioos:station:wmo:SIPF1:1,2017-12-02T04:15:00Z,27.8620,-80.4450,1.0,3.2,72.0,99.0,'11111222,11111222,11144222' 
FIT,ioos:station:wmo:SIPF1:1,2017-12-02T04:30:00Z,27.8620,-80.4450,1.0,3.6,78.0,99.0,'11111222,11111222,11144222' 
FIT,ioos:station:wmo:SIPF1:1,2017-12-02T04:45:00Z,27.8620,-80.4450,1.0,3.6,82.0,99.0,'11111222,11111222,11144222' 
FIT,ioos:station:wmo:SIPF1:1,2017-12-02T05:00:00Z,27.8620,-80.4450,1.0,3.7,82.0,99.0,'11111222,11111222,11144222' 
FIT,ioos:station:wmo:SIPF1:1,2017-12-02T05:15:00Z,27.8620,-80.4450,1.0,3.8,89.0,99.0,'11111222,11111222,11144222' 
FIT,ioos:station:wmo:SIPF1:1,2017-12-02T05:30:00Z,27.8620,-80.4450,1.0,3.8,87.0,99.0,'11111222,11111222,11144222' 
FIT,ioos:station:wmo:SIPF1:1,2017-12-02T05:45:00Z,27.8620,-80.4450,1.0,3.7,84.0,99.0,'11111222,11111222,11144222' 
FIT,ioos:station:wmo:SIPF1:1,2017-12-02T06:00:00Z,27.8620,-80.4450,1.0,3.6,83.0,99.0,'11111222,11111222,11144222' 
FIT,ioos:station:wmo:SIPF1:1,2017-12-02T06:15:00Z,27.8620,-80.4450,1.0,3.3,85.0,99.0,'11111222,11111222,11144222' 
FIT,ioos:station:wmo:SIPF1:1,2017-12-02T06:30:00Z,27.8620,-80.4450,1.0,3.0,84.0,99.0,'11111222,11111222,11144222' 
FIT,ioos:station:wmo:SIPF1:1,2017-12-02T06:45:00Z,27.8620,-80.4450,1.0,3.5,84.0,99.0,'11111222,11111222,11144222' 
FIT,ioos:station:wmo:SIPF1:1,2017-12-02T07:00:00Z,27.8620,-80.4450,1.0,3.4,75.0,99.0,'11111222,11111222,11144222' 
FIT,ioos:station:wmo:SIPF1:1,2017-12-02T07:15:00Z,27.8620,-80.4450,1.0,3.6,81.0,99.0,'11111222,11111222,11144222' 
FIT,ioos:station:wmo:SIPF1:1,2017-12-02T07:30:00Z,27.8620,-80.4450,1.0,3.7,87.0,99.0,'11111222,11111222,11144222' 
FIT,ioos:station:wmo:SIPF1:1,2017-12-02T07:45:00Z,27.8620,-80.4450,1.0,3.5,92.0,99.0,'11111222,11111222,11144222' 
FIT,ioos:station:wmo:SIPF1:1,2017-12-02T08:00:00Z,27.8620,-80.4450,1.0,3.5,88.0,99.0,'11111222,11111222,11144222' 
FIT,ioos:station:wmo:SIPF1:1,2017-12-02T08:15:00Z,27.8620,-80.4450,1.0,3.1,84.0,99.0,'11111222,11111222,11144222' 
FIT,ioos:station:wmo:SIPF1:1,2017-12-02T08:30:00Z,27.8620,-80.4450,1.0,2.9,79.0,99.0,'11111222,11111222,11144222' 
FIT,ioos:station:wmo:SIPF1:1,2017-12-02T08:45:00Z,27.8620,-80.4450,1.0,2.7,77.0,99.0,'11111222,11111222,11144222' 
FIT,ioos:station:wmo:SIPF1:1,2017-12-02T09:00:00Z,27.8620,-80.4450,1.0,2.9,80.0,99.0,'11111222,11111222,11144222' 
FIT,ioos:station:wmo:SIPF1:1,2017-12-02T09:15:00Z,27.8620,-80.4450,1.0,2.5,79.0,99.0,'11111222,11111222,11144222' 
FIT,ioos:station:wmo:SIPF1:1,2017-12-02T09:30:00Z,27.8620,-80.4450,1.0,2.4,70.0,99.0,'11111222,11111222,11144222' 
FIT,ioos:station:wmo:SIPF1:1,2017-12-02T09:45:00Z,27.8620,-80.4450,1.0,2.6,73.0,99.0,'11111222,11111222,11144222' 
FIT,ioos:station:wmo:SIPF1:1,2017-12-02T10:00:00Z,27.8620,-80.4450,1.0,2.3,70.0,99.0,'11111222,11111222,11144222' 
FIT,ioos:station:wmo:SIPF1:1,2017-12-02T10:15:00Z,27.8620,-80.4450,1.0,2.7,68.0,99.0,'11111222,11111222,11144222' 
FIT,ioos:station:wmo:SIPF1:1,2017-12-02T10:30:00Z,27.8620,-80.4450,1.0,2.9,56.0,99.0,'11111222,11111222,11144222' 
FIT,ioos:station:wmo:SIPF1:1,2017-12-02T10:45:00Z,27.8620,-80.4450,1.0,3.1,50.0,99.0,'11111222,11111222,11144222' 
FIT,ioos:station:wmo:SIPF1:1,2017-12-02T11:00:00Z,27.8620,-80.4450,1.0,3.0,48.0,99.0,'11111222,11111222,11144222' 
FIT,ioos:station:wmo:SIPF1:1,2017-12-02T11:15:00Z,27.8620,-80.4450,1.0,3.2,41.0,99.0,'11111222,11111222,11144222' 
FIT,ioos:station:wmo:SIPF1:1,2017-12-02T11:30:00Z,27.8620,-80.4450,1.0,3.1,36.0,99.0,'11111222,11111222,11144222' 
FIT,ioos:station:wmo:SIPF1:1,2017-12-02T11:45:00Z,27.8620,-80.4450,1.0,3.2,40.0,99.0,'11111222,11111222,11144222' 
FIT,ioos:station:wmo:SIPF1:1,2017-12-02T12:00:00Z,27.8620,-80.4450,1.0,2.7,39.0,99.0,'11111222,11111222,11144222' 
FIT,ioos:station:wmo:SIPF1:1,2017-12-02T12:15:00Z,27.8620,-80.4450,1.0,2.6,45.0,99.0,'11111222,11111222,11144222' 
FIT,ioos:station:wmo:SIPF1:1,2017-12-02T12:30:00Z,27.8620,-80.4450,1.0,2.5,42.0,99.0,'11111222,11111222,11144222' 
FIT,ioos:station:wmo:SIPF1:1,2017-12-02T12:45:00Z,27.8620,-80.4450,1.0,2.7,32.0,99.0,'11111222,11111222,11144222' 
FIT,ioos:station:wmo:SIPF1:1,2017-12-02T13:00:00Z,27.8620,-80.4450,1.0,3.1,23.0,99.0,'11111222,11111222,11144222' 
FIT,ioos:station:wmo:SIPF1:1,2017-12-02T13:15:00Z,27.8620,-80.4450,1.0,3.4,17.0,99.0,'11111222,11111222,11144222' 
FIT,ioos:station:wmo:SIPF1:1,2017-12-02T13:30:00Z,27.8620,-80.4450,1.0,3.4,25.0,99.0,'11111222,11111222,11144222' 
FIT,ioos:station:wmo:SIPF1:1,2017-12-02T13:45:00Z,27.8620,-80.4450,1.0,3.4,35.0,99.0,'11111222,11111222,11144222' 
FIT,ioos:station:wmo:SIPF1:1,2017-12-02T14:00:00Z,27.8620,-80.4450,1.0,3.2,32.0,99.0,'11111222,11111222,11144222' 
FIT,ioos:station:wmo:SIPF1:1,2017-12-02T14:15:00Z,27.8620,-80.4450,1.0,3.6,29.0,99.0,'11111222,11111222,11144222' 
FIT,ioos:station:wmo:SIPF1:1,2017-12-02T14:30:00Z,27.8620,-80.4450,1.0,4.0,30.0,99.0,'11111222,11111222,11144222' 
FIT,ioos:station:wmo:SIPF1:1,2017-12-02T14:45:00Z,27.8620,-80.4450,1.0,3.7,23.0,99.0,'11111222,11111222,11144222' 
FIT,ioos:station:wmo:SIPF1:1,2017-12-02T15:00:00Z,27.8620,-80.4450,1.0,3.5,27.0,99.0,'11111222,11111222,11144222' 
FIT,ioos:station:wmo:SIPF1:1,2017-12-02T15:15:00Z,27.8620,-80.4450,1.0,3.6,32.0,99.0,'11111222,11111222,11144222' 
FIT,ioos:station:wmo:SIPF1:1,2017-12-02T15:30:00Z,27.8620,-80.4450,1.0,3.4,28.0,99.0,'11111222,11111222,11144222' 
FIT,ioos:station:wmo:SIPF1:1,2017-12-02T15:45:00Z,27.8620,-80.4450,1.0,3.1,26.0,99.0,'11111222,11111222,11144222' 
FIT,ioos:station:wmo:SIPF1:1,2017-12-02T16:00:00Z,27.8620,-80.4450,1.0,2.7,28.0,99.0,'11111222,11111222,11144222' 
FIT,ioos:station:wmo:SIPF1:1,2017-12-02T16:15:00Z,27.8620,-80.4450,1.0,2.6,30.0,99.0,'11111222,11111222,11144222' 
FIT,ioos:station:wmo:SIPF1:1,2017-12-02T16:30:00Z,27.8620,-80.4450,1.0,2.7,29.0,99.0,'11111222,11111222,11144222' 
FIT,ioos:station:wmo:SIPF1:1,2017-12-02T16:45:00Z,27.8620,-80.4450,1.0,2.7,28.0,99.0,'11111222,11111222,11144222' 
FIT,ioos:station:wmo:SIPF1:1,2017-12-02T17:00:00Z,27.8620,-80.4450,1.0,2.7,25.0,99.0,'11111222,11111222,11144222' 
FIT,ioos:station:wmo:SIPF1:1,2017-12-02T17:15:00Z,27.8620,-80.4450,1.0,2.8,24.0,99.0,'11111222,11111222,11144222' 
FIT,ioos:station:wmo:SIPF1:1,2017-12-02T17:30:00Z,27.8620,-80.4450,1.0,3.1,19.0,99.0,'11111222,11111222,11144222' 
FIT,ioos:station:wmo:SIPF1:1,2017-12-02T17:45:00Z,27.8620,-80.4450,1.0,3.6,8.0,99.0,'11111222,11111222,11144222' 
FIT,ioos:station:wmo:SIPF1:1,2017-12-02T18:00:00Z,27.8620,-80.4450,1.0,4.1,6.0,99.0,'11111222,11111222,11144222' 
FIT,ioos:station:wmo:SIPF1:1,2017-12-02T18:15:00Z,27.8620,-80.4450,1.0,3.6,9.0,99.0,'11111222,11111222,11144222' 
FIT,ioos:station:wmo:SIPF1:1,2017-12-02T18:30:00Z,27.8620,-80.4450,1.0,3.7,11.0,99.0,'11111222,11111222,11144222' 
FIT,ioos:station:wmo:SIPF1:1,2017-12-02T18:45:00Z,27.8620,-80.4450,1.0,3.4,9.0,99.0,'11111222,11111222,11144222' 
FIT,ioos:station:wmo:SIPF1:1,2017-12-02T19:00:00Z,27.8620,-80.4450,1.0,3.7,10.0,99.0,'11111222,11111222,11144222' 
FIT,ioos:station:wmo:SIPF1:1,2017-12-02T19:15:00Z,27.8620,-80.4450,1.0,3.6,6.0,99.0,'11111222,11111222,11144222' 
FIT,ioos:station:wmo:SIPF1:1,2017-12-02T19:30:00Z,27.8620,-80.4450,1.0,3.7,10.0,99.0,'11111222,11111222,11144222' 
FIT,ioos:station:wmo:SIPF1:1,2017-12-02T19:45:00Z,27.8620,-80.4450,1.0,3.7,18.0,99.0,'11111222,11111222,11144222' 
FIT,ioos:station:wmo:SIPF1:1,2017-12-02T20:00:00Z,27.8620,-80.4450,1.0,3.8,17.0,99.0,'11111222,11111222,11144222' 
FIT,ioos:station:wmo:SIPF1:1,2017-12-02T20:15:00Z,27.8620,-80.4450,1.0,3.8,17.0,99.0,'11111222,11111222,11144222' 
FIT,ioos:station:wmo:SIPF1:1,2017-12-02T20:30:00Z,27.8620,-80.4450,1.0,3.8,21.0,99.0,'11111222,11111222,11144222' 
FIT,ioos:station:wmo:SIPF1:1,2017-12-02T20:45:00Z,27.8620,-80.4450,1.0,3.9,27.0,99.0,'11111222,11111222,11144222' 
FIT,ioos:station:wmo:SIPF1:1,2017-12-02T21:00:00Z,27.8620,-80.4450,1.0,3.9,28.0,99.0,'11111222,11111222,11144222' 
FIT,ioos:station:wmo:SIPF1:1,2017-12-02T21:15:00Z,27.8620,-80.4450,1.0,3.6,37.0,99.0,'11111222,11111222,11144222' 
FIT,ioos:station:wmo:SIPF1:1,2017-12-02T21:30:00Z,27.8620,-80.4450,1.0,3.6,38.0,99.0,'11111222,11111222,11144222' 
FIT,ioos:station:wmo:SIPF1:1,2017-12-02T21:45:00Z,27.8620,-80.4450,1.0,3.4,39.0,99.0,'11111222,11111222,11144222' 
FIT,ioos:station:wmo:SIPF1:1,2017-12-02T22:00:00Z,27.8620,-80.4450,1.0,3.4,42.0,99.0,'11111222,11111222,11144222' 
FIT,ioos:station:wmo:SIPF1:1,2017-12-02T22:15:00Z,27.8620,-80.4450,1.0,3.2,43.0,99.0,'11111222,11111222,11144222' 
FIT,ioos:station:wmo:SIPF1:1,2017-12-02T22:30:00Z,27.8620,-80.4450,1.0,2.7,61.0,99.0,'11111222,11111222,11144222' 
FIT,ioos:station:wmo:SIPF1:1,2017-12-02T22:45:00Z,27.8620,-80.4450,1.0,3.0,105.0,99.0,'11111222,11111222,11144222' 
FIT,ioos:station:wmo:SIPF1:1,2017-12-02T23:00:00Z,27.8620,-80.4450,1.0,2.3,93.0,99.0,'11111222,11111222,11144222' 
FIT,ioos:station:wmo:SIPF1:1,2017-12-02T23:15:00Z,27.8620,-80.4450,1.0,2.0,97.0,99.0,'11111222,11111222,11144222' 
FIT,ioos:station:wmo:SIPF1:1,2017-12-02T23:30:00Z,27.8620,-80.4450,1.0,1.7,102.0,99.0,'11111222,11111222,11144222' 
FIT,ioos:station:wmo:SIPF1:1,2017-12-02T23:45:00Z,27.8620,-80.4450,1.0,1.1,79.0,99.0,'11111222,11111222,11144222' 
FIT,ioos:station:wmo:SIPF1:1,2017-12-03T00:00:00Z,27.8620,-80.4450,1.0,0.9,52.0,99.0,'11111222,11111222,11144222' 
FIT,ioos:station:wmo:SIPF1:1,2017-12-03T00:15:00Z,27.8620,-80.4450,1.0,0.9,38.0,99.0,'11111222,11111222,11144222' 
FIT,ioos:station:wmo:SIPF1:1,2017-12-03T00:30:00Z,27.8620,-80.4450,1.0,0.6,37.0,99.0,'11111222,11111222,11144222' 
FIT,ioos:station:wmo:SIPF1:1,2017-12-03T00:45:00Z,27.8620,-80.4450,1.0,0.5,54.0,99.0,'11111222,11111222,11144222' 
FIT,ioos:station:wmo:SIPF1:1,2017-12-03T01:00:00Z,27.8620,-80.4450,1.0,1.0,47.0,99.0,'11111222,11111222,11144222' 
FIT,ioos:station:wmo:SIPF1:1,2017-12-03T01:15:00Z,27.8620,-80.4450,1.0,1.3,30.0,99.0,'11111222,11111222,11144222' 
FIT,ioos:station:wmo:SIPF1:1,2017-12-03T01:30:00Z,27.8620,-80.4450,1.0,1.7,50.0,99.0,'11111222,11111222,11144222' 
FIT,ioos:station:wmo:SIPF1:1,2017-12-03T01:45:00Z,27.8620,-80.4450,1.0,1.6,64.0,99.0,'11111222,11111222,11144222' 
FIT,ioos:station:wmo:SIPF1:1,2017-12-03T02:00:00Z,27.8620,-80.4450,1.0,1.7,75.0,99.0,'11111222,11111222,11144222' 
FIT,ioos:station:wmo:SIPF1:1,2017-12-03T02:15:00Z,27.8620,-80.4450,1.0,1.7,78.0,99.0,'11111222,11111222,11144222' 
FIT,ioos:station:wmo:SIPF1:1,2017-12-03T02:30:00Z,27.8620,-80.4450,1.0,1.7,76.0,99.0,'11111222,11111222,11144222' 
FIT,ioos:station:wmo:SIPF1:1,2017-12-03T02:45:00Z,27.8620,-80.4450,1.0,1.6,77.0,99.0,'11111222,11111222,11144222' 
FIT,ioos:station:wmo:SIPF1:1,2017-12-03T03:00:00Z,27.8620,-80.4450,1.0,1.5,69.0,99.0,'11111222,11111222,11144222' 
FIT,ioos:station:wmo:SIPF1:1,2017-12-03T03:15:00Z,27.8620,-80.4450,1.0,1.6,60.0,99.0,'11111222,11111222,11144222' 
FIT,ioos:station:wmo:SIPF1:1,2017-12-03T03:30:00Z,27.8620,-80.4450,1.0,1.7,60.0,99.0,'11111222,11111222,11144222' 